Location: Fenile
(46.0500°N, 9.5500°E)
Time: 13:25:12
(UTC+00:00)

ATLAS CENTAUR R/B - Pass Details

Date: 03 March 2021
Orbit: 475 x 670 km, 64.7° (Epoch: 30 March)

Event Time Altitude Azimuth Distance (km) Brightness Sun altitude
Rises 19:58:01 0° 257° (WSW) 2,520 5.4 -29.2°
Reaches altitude 10° 20:00:37 10° 276° (W) 1,646 4.6 -29.6°
Maximum altitude 20:03:14 18° 322° (NW) 1,229 3.7 -30.0°
Enters shadow 20:03:16 18° 323° (NW) 1,229 3.7 -30.0°
